Location: Kellogg
(38.0159°N, 90.0546°W)
Time: 23:18:51
(UTC+00:00)

Vanguard 2 - Pass Details

Date: 25 September 2024
Orbit: 552 x 2910 km, 32.9° (Epoch: 09 October)

Event Time Altitude Azimuth Distance (km) Brightness Sun altitude
Rises 10:59:13 0° 265° (W) 2,919 - -11.0°
Reaches altitude 10° 11:01:36 10° 250° (WSW) 2,169 - -10.6°
Exits shadow 11:02:05 12° 246° (WSW) 2,045 9.1 -10.5°
Maximum altitude 11:05:37 24° 196° (SSW) 1,713 9.1 -9.8°
Drops below altitude 10° 11:11:05 10° 145° (SE) 3,056 11.0 -8.7°
Sets 11:15:12 0° 134° (SE) 4,459 12.1 -7.9°
